Year,Month,Day,Hour,Minute,Value (Times are PST for temperature in C)
2014,11,07,00,00,8.60
2014,11,07,00,01,8.60
2014,11,07,00,02,8.60
2014,11,07,00,03,8.60
2014,11,07,00,04,8.60
2014,11,07,00,05,8.60
2014,11,07,00,06,8.60
2014,11,07,00,07,8.50
2014,11,07,00,08,8.50
2014,11,07,00,09,8.50
2014,11,07,00,10,8.50
2014,11,07,00,11,8.40
2014,11,07,00,12,8.40
2014,11,07,00,13,8.40
2014,11,07,00,14,8.40
2014,11,07,00,15,8.30
2014,11,07,00,16,8.30
2014,11,07,00,17,8.30
2014,11,07,00,18,8.30
2014,11,07,00,19,8.30
2014,11,07,00,20,8.30
2014,11,07,00,21,8.20
2014,11,07,00,22,8.20
2014,11,07,00,23,8.20
2014,11,07,00,24,8.20
2014,11,07,00,25,8.20
2014,11,07,00,26,8.20
2014,11,07,00,27,8.10
2014,11,07,00,28,8.10
2014,11,07,00,29,8.10
2014,11,07,00,30,8.10
2014,11,07,00,31,8.00
2014,11,07,00,32,8.00
2014,11,07,00,33,8.00
2014,11,07,00,34,8.00
2014,11,07,00,35,7.90
2014,11,07,00,36,7.90
2014,11,07,00,37,7.90
2014,11,07,00,38,7.90
2014,11,07,00,39,7.90
2014,11,07,00,40,7.90
2014,11,07,00,41,7.80
2014,11,07,00,42,7.80
2014,11,07,00,43,7.80
2014,11,07,00,44,7.80
2014,11,07,00,45,7.80
2014,11,07,00,46,7.70
2014,11,07,00,47,7.70
2014,11,07,00,48,7.70
2014,11,07,00,49,7.70
2014,11,07,00,50,7.70
2014,11,07,00,51,7.70
2014,11,07,00,52,7.70
2014,11,07,00,53,7.70
2014,11,07,00,54,7.70
2014,11,07,00,55,7.60
2014,11,07,00,56,7.60
2014,11,07,00,57,7.60
2014,11,07,00,58,7.60
2014,11,07,00,59,7.60
2014,11,07,01,00,7.60
2014,11,07,01,01,7.50
2014,11,07,01,02,7.50
2014,11,07,01,03,7.50
2014,11,07,01,04,7.50
2014,11,07,01,05,7.40
2014,11,07,01,06,7.40
2014,11,07,01,07,7.40
2014,11,07,01,08,7.40
2014,11,07,01,09,7.40
2014,11,07,01,10,7.40
2014,11,07,01,11,7.40
2014,11,07,01,12,7.40
2014,11,07,01,13,7.40
2014,11,07,01,14,7.40
2014,11,07,01,15,7.30
2014,11,07,01,16,7.30
2014,11,07,01,17,7.30
2014,11,07,01,18,7.30
2014,11,07,01,19,7.30
2014,11,07,01,20,7.30
2014,11,07,01,21,7.30
2014,11,07,01,22,7.30
2014,11,07,01,23,7.30
2014,11,07,01,24,7.30
2014,11,07,01,25,7.30
2014,11,07,01,26,7.20
2014,11,07,01,27,7.20
2014,11,07,01,28,7.20
2014,11,07,01,29,7.20
2014,11,07,01,30,7.20
2014,11,07,01,31,7.20
2014,11,07,01,32,7.20
2014,11,07,01,33,7.20
2014,11,07,01,34,7.10
2014,11,07,01,35,7.10
2014,11,07,01,36,7.10
2014,11,07,01,37,7.10
2014,11,07,01,38,7.10
2014,11,07,01,39,7.00
2014,11,07,01,40,7.00
2014,11,07,01,41,7.00
2014,11,07,01,42,7.00
2014,11,07,01,43,7.00
2014,11,07,01,44,7.00
2014,11,07,01,45,7.00
2014,11,07,01,46,7.00
2014,11,07,01,47,7.00
2014,11,07,01,48,7.00
2014,11,07,01,49,7.00
2014,11,07,01,50,7.00
2014,11,07,01,51,7.00
2014,11,07,01,52,7.00
2014,11,07,01,53,6.90
2014,11,07,01,54,6.90
2014,11,07,01,55,6.90
2014,11,07,01,56,6.90
2014,11,07,01,57,6.90
2014,11,07,01,58,6.90
2014,11,07,01,59,6.90
2014,11,07,02,00,6.90
2014,11,07,02,01,6.90
2014,11,07,02,02,6.90
2014,11,07,02,03,6.90
2014,11,07,02,04,6.90
2014,11,07,02,05,6.90
2014,11,07,02,06,6.90
2014,11,07,02,07,6.90
2014,11,07,02,08,6.90
2014,11,07,02,09,6.90
2014,11,07,02,10,6.90
2014,11,07,02,11,6.90
2014,11,07,02,12,6.90
2014,11,07,02,13,6.90
2014,11,07,02,14,6.90
2014,11,07,02,15,6.90
2014,11,07,02,16,6.90
2014,11,07,02,17,6.90
2014,11,07,02,18,6.90
2014,11,07,02,19,6.90
2014,11,07,02,20,6.90
2014,11,07,02,21,6.90
2014,11,07,02,22,6.90
2014,11,07,02,23,6.90
2014,11,07,02,24,6.90
2014,11,07,02,25,6.90
2014,11,07,02,26,6.90
2014,11,07,02,27,6.90
2014,11,07,02,28,6.90
2014,11,07,02,29,6.90
2014,11,07,02,30,6.90
2014,11,07,02,31,6.90
2014,11,07,02,32,6.80
2014,11,07,02,33,6.80
2014,11,07,02,34,6.70
2014,11,07,02,35,6.60
2014,11,07,02,36,6.60
2014,11,07,02,37,6.50
2014,11,07,02,38,6.50
2014,11,07,02,39,6.40
2014,11,07,02,40,6.40
2014,11,07,02,41,6.40
2014,11,07,02,42,6.30
2014,11,07,02,43,6.30
2014,11,07,02,44,6.30
2014,11,07,02,45,6.30
2014,11,07,02,46,6.30
2014,11,07,02,47,6.40
2014,11,07,02,48,6.40
2014,11,07,02,49,6.40
2014,11,07,02,50,6.40
2014,11,07,02,51,6.40
2014,11,07,02,52,6.40
2014,11,07,02,53,6.50
2014,11,07,02,54,6.50
2014,11,07,02,55,6.60
2014,11,07,02,56,6.60
2014,11,07,02,57,6.60
2014,11,07,02,58,6.70
2014,11,07,02,59,6.70
2014,11,07,03,00,6.70
2014,11,07,03,01,6.70
2014,11,07,03,02,6.80
2014,11,07,03,03,6.80
2014,11,07,03,04,6.80
2014,11,07,03,05,6.80
2014,11,07,03,06,6.80
2014,11,07,03,07,6.80
2014,11,07,03,08,6.80
2014,11,07,03,09,6.70
2014,11,07,03,10,6.60
2014,11,07,03,11,6.60
2014,11,07,03,12,6.50
2014,11,07,03,13,6.40
2014,11,07,03,14,6.40
2014,11,07,03,15,6.40
2014,11,07,03,16,6.40
2014,11,07,03,17,6.40
2014,11,07,03,18,6.40
2014,11,07,03,19,6.40
2014,11,07,03,20,6.30
2014,11,07,03,21,6.30
2014,11,07,03,22,6.30
2014,11,07,03,23,6.30
2014,11,07,03,24,6.40
2014,11,07,03,25,6.40
2014,11,07,03,26,6.40
2014,11,07,03,27,6.40
2014,11,07,03,28,6.40
2014,11,07,03,29,6.40
2014,11,07,03,30,6.40
2014,11,07,03,31,6.40
2014,11,07,03,32,6.40
2014,11,07,03,33,6.40
2014,11,07,03,34,6.50
2014,11,07,03,35,6.50
2014,11,07,03,36,6.50
2014,11,07,03,37,6.50
2014,11,07,03,38,6.50
2014,11,07,03,39,6.50
2014,11,07,03,40,6.50
2014,11,07,03,41,6.40
2014,11,07,03,42,6.40
2014,11,07,03,43,6.40
2014,11,07,03,44,6.30
2014,11,07,03,45,6.30
2014,11,07,03,46,6.30
2014,11,07,03,47,6.30
2014,11,07,03,48,6.20
2014,11,07,03,49,6.20
2014,11,07,03,50,6.10
2014,11,07,03,51,6.10
2014,11,07,03,52,6.00
2014,11,07,03,53,6.00
2014,11,07,03,54,5.90
2014,11,07,03,55,5.90
2014,11,07,03,56,5.90
2014,11,07,03,57,5.80
2014,11,07,03,58,5.80
2014,11,07,03,59,5.80
2014,11,07,04,00,5.80
2014,11,07,04,01,5.80
2014,11,07,04,02,5.80
2014,11,07,04,03,5.80
2014,11,07,04,04,5.70
2014,11,07,04,05,5.70
2014,11,07,04,06,5.70
2014,11,07,04,07,5.70
2014,11,07,04,08,5.70
2014,11,07,04,09,5.70
2014,11,07,04,10,5.70
2014,11,07,04,11,5.70
2014,11,07,04,12,5.60
2014,11,07,04,13,5.60
2014,11,07,04,14,5.60
2014,11,07,04,15,5.50
2014,11,07,04,16,5.50
2014,11,07,04,17,5.50
2014,11,07,04,18,5.60
2014,11,07,04,19,5.60
2014,11,07,04,20,5.60
2014,11,07,04,21,5.70
2014,11,07,04,22,5.80
2014,11,07,04,23,5.90
2014,11,07,04,24,6.00
2014,11,07,04,25,6.00
2014,11,07,04,26,6.10
2014,11,07,04,27,6.20
2014,11,07,04,28,6.20
2014,11,07,04,29,6.30
2014,11,07,04,30,6.30
2014,11,07,04,31,6.30
2014,11,07,04,32,6.30
2014,11,07,04,33,6.30
2014,11,07,04,34,6.20
2014,11,07,04,35,6.00
2014,11,07,04,36,5.90
2014,11,07,04,37,5.70
2014,11,07,04,38,5.60
2014,11,07,04,39,5.50
2014,11,07,04,40,5.50
2014,11,07,04,41,5.40
2014,11,07,04,42,5.30
2014,11,07,04,43,5.30
2014,11,07,04,44,5.30
2014,11,07,04,45,5.30
2014,11,07,04,46,5.30
2014,11,07,04,47,5.30
2014,11,07,04,48,5.30
2014,11,07,04,49,5.20
2014,11,07,04,50,5.20
2014,11,07,04,51,5.20
2014,11,07,04,52,5.30
2014,11,07,04,53,5.30
2014,11,07,04,54,5.30
2014,11,07,04,55,5.30
2014,11,07,04,56,5.30
2014,11,07,04,57,5.30
2014,11,07,04,58,5.40
2014,11,07,04,59,5.40
2014,11,07,05,00,5.40
2014,11,07,05,01,5.40
2014,11,07,05,02,5.40
2014,11,07,05,03,5.40
2014,11,07,05,04,5.40
2014,11,07,05,05,5.40
2014,11,07,05,06,5.50
2014,11,07,05,07,5.50
2014,11,07,05,08,5.50
2014,11,07,05,09,5.50
2014,11,07,05,10,5.50
2014,11,07,05,11,5.50
2014,11,07,05,12,5.60
2014,11,07,05,13,5.60
2014,11,07,05,14,5.60
2014,11,07,05,15,5.60
2014,11,07,05,16,5.60
2014,11,07,05,17,5.70
2014,11,07,05,18,5.70
2014,11,07,05,19,5.70
2014,11,07,05,20,5.70
2014,11,07,05,21,5.70
2014,11,07,05,22,5.70
2014,11,07,05,23,5.70
2014,11,07,05,24,5.70
2014,11,07,05,25,5.60
2014,11,07,05,26,5.60
2014,11,07,05,27,5.50
2014,11,07,05,28,5.50
2014,11,07,05,29,5.50
2014,11,07,05,30,5.40
2014,11,07,05,31,5.40
2014,11,07,05,32,5.40
2014,11,07,05,33,5.40
2014,11,07,05,34,5.30
2014,11,07,05,35,5.30
2014,11,07,05,36,5.30
2014,11,07,05,37,5.30
2014,11,07,05,38,5.30
2014,11,07,05,39,5.30
2014,11,07,05,40,5.20
2014,11,07,05,41,5.20
2014,11,07,05,42,5.20
2014,11,07,05,43,5.10
2014,11,07,05,44,5.10
2014,11,07,05,45,5.10
2014,11,07,05,46,5.10
2014,11,07,05,47,5.10
2014,11,07,05,48,5.10
2014,11,07,05,49,5.10
2014,11,07,05,50,5.10
2014,11,07,05,51,5.10
2014,11,07,05,52,5.10
2014,11,07,05,53,5.00
2014,11,07,05,54,4.90
2014,11,07,05,55,4.90
2014,11,07,05,56,4.90
2014,11,07,05,57,4.90
2014,11,07,05,58,4.90
2014,11,07,05,59,4.80
2014,11,07,06,00,4.80
2014,11,07,06,01,4.80
2014,11,07,06,02,4.80
2014,11,07,06,03,4.70
2014,11,07,06,04,4.70
2014,11,07,06,05,4.70
2014,11,07,06,06,4.70
2014,11,07,06,07,4.60
2014,11,07,06,08,4.60
2014,11,07,06,09,4.60
2014,11,07,06,10,4.70
2014,11,07,06,11,4.70
2014,11,07,06,12,4.70
2014,11,07,06,13,4.80
2014,11,07,06,14,4.80
2014,11,07,06,15,4.80
2014,11,07,06,16,4.90
2014,11,07,06,17,4.90
2014,11,07,06,18,4.90
2014,11,07,06,19,4.90
2014,11,07,06,20,4.80
2014,11,07,06,21,4.80
2014,11,07,06,22,4.80
2014,11,07,06,23,4.80
2014,11,07,06,24,4.80
2014,11,07,06,25,4.80
2014,11,07,06,26,4.80
2014,11,07,06,27,4.80
2014,11,07,06,28,4.70
2014,11,07,06,29,4.70
2014,11,07,06,30,4.70
2014,11,07,06,31,4.70
2014,11,07,06,32,4.70
2014,11,07,06,33,4.70
2014,11,07,06,34,4.70
2014,11,07,06,35,4.60
2014,11,07,06,36,4.60
2014,11,07,06,37,4.60
2014,11,07,06,38,4.60
2014,11,07,06,39,4.60
2014,11,07,06,40,4.50
2014,11,07,06,41,4.50
2014,11,07,06,42,4.40
2014,11,07,06,43,4.40
2014,11,07,06,44,4.40
2014,11,07,06,45,4.40
2014,11,07,06,46,4.40
2014,11,07,06,47,4.30
2014,11,07,06,48,4.30
2014,11,07,06,49,4.30
2014,11,07,06,50,4.30
2014,11,07,06,51,4.30
2014,11,07,06,52,4.30
2014,11,07,06,53,4.30
2014,11,07,06,54,4.30
2014,11,07,06,55,4.30
2014,11,07,06,56,4.30
2014,11,07,06,57,4.30
2014,11,07,06,58,4.30
2014,11,07,06,59,4.20
2014,11,07,07,00,4.20
2014,11,07,07,01,4.20
2014,11,07,07,02,4.20
2014,11,07,07,03,4.10
2014,11,07,07,04,4.10
2014,11,07,07,05,4.10
2014,11,07,07,06,4.00
2014,11,07,07,07,4.00
2014,11,07,07,08,3.90
2014,11,07,07,09,3.90
2014,11,07,07,10,3.90
2014,11,07,07,11,3.90
2014,11,07,07,12,3.90
2014,11,07,07,13,3.90
2014,11,07,07,14,3.90
2014,11,07,07,15,4.00
2014,11,07,07,16,4.00
2014,11,07,07,17,4.10
2014,11,07,07,18,4.10
2014,11,07,07,19,4.20
2014,11,07,07,20,4.20
2014,11,07,07,21,4.20
2014,11,07,07,22,4.30
2014,11,07,07,23,4.30
2014,11,07,07,24,4.30
2014,11,07,07,25,4.30
2014,11,07,07,26,4.30
2014,11,07,07,27,4.30
2014,11,07,07,28,4.30
2014,11,07,07,29,4.30
2014,11,07,07,30,4.30
2014,11,07,07,31,4.30
2014,11,07,07,32,4.30
2014,11,07,07,33,4.30
2014,11,07,07,34,4.30
2014,11,07,07,35,4.30
2014,11,07,07,36,4.30
2014,11,07,07,37,4.30
2014,11,07,07,38,4.30
2014,11,07,07,39,4.30
2014,11,07,07,40,4.30
2014,11,07,07,41,4.30
2014,11,07,07,42,4.30
2014,11,07,07,43,4.30
2014,11,07,07,44,4.30
2014,11,07,07,45,4.30
2014,11,07,07,46,4.30
2014,11,07,07,47,4.30
2014,11,07,07,48,4.30
2014,11,07,07,49,4.30
2014,11,07,07,50,4.30
2014,11,07,07,51,4.30
2014,11,07,07,52,4.30
2014,11,07,07,53,4.40
2014,11,07,07,54,4.40
2014,11,07,07,55,4.40
2014,11,07,07,56,4.40
2014,11,07,07,57,4.50
2014,11,07,07,58,4.50
2014,11,07,07,59,4.50
2014,11,07,08,00,4.60
2014,11,07,08,01,4.60
2014,11,07,08,02,4.70
2014,11,07,08,03,4.70
2014,11,07,08,04,4.80
2014,11,07,08,05,4.80
2014,11,07,08,06,4.80
2014,11,07,08,07,4.80
2014,11,07,08,08,4.80
2014,11,07,08,09,4.90
2014,11,07,08,10,4.90
2014,11,07,08,11,4.90
2014,11,07,08,12,5.00
2014,11,07,08,13,5.00
2014,11,07,08,14,5.10
2014,11,07,08,15,5.10
2014,11,07,08,16,5.10
2014,11,07,08,17,5.10
2014,11,07,08,18,5.10
2014,11,07,08,19,5.20
2014,11,07,08,20,5.20
2014,11,07,08,21,5.20
2014,11,07,08,22,5.20
2014,11,07,08,23,5.20
2014,11,07,08,24,5.20
2014,11,07,08,25,5.20
2014,11,07,08,26,5.20
2014,11,07,08,27,5.20
2014,11,07,08,28,5.30
2014,11,07,08,29,5.30
2014,11,07,08,30,5.30
2014,11,07,08,31,5.30
2014,11,07,08,32,5.40
2014,11,07,08,33,5.40
2014,11,07,08,34,5.50
2014,11,07,08,35,5.60
2014,11,07,08,36,5.60
2014,11,07,08,37,5.70
2014,11,07,08,38,5.70
2014,11,07,08,39,5.70
2014,11,07,08,40,5.80
2014,11,07,08,41,5.80
2014,11,07,08,42,5.80
2014,11,07,08,43,5.90
2014,11,07,08,44,6.00
2014,11,07,08,45,6.00
2014,11,07,08,46,6.10
2014,11,07,08,47,6.20
2014,11,07,08,48,6.20
2014,11,07,08,49,6.30
2014,11,07,08,50,6.40
2014,11,07,08,51,6.50
2014,11,07,08,52,6.60
2014,11,07,08,53,6.70
2014,11,07,08,54,6.80
2014,11,07,08,55,6.80
2014,11,07,08,56,7.00
2014,11,07,08,57,7.00
2014,11,07,08,58,7.10
2014,11,07,08,59,7.20
2014,11,07,09,00,7.20
2014,11,07,09,01,7.30
2014,11,07,09,02,7.30
2014,11,07,09,03,7.40
2014,11,07,09,04,7.40
2014,11,07,09,05,7.50
2014,11,07,09,06,7.60
2014,11,07,09,07,7.60
2014,11,07,09,08,7.60
2014,11,07,09,09,7.60
2014,11,07,09,10,7.50
2014,11,07,09,11,7.50
2014,11,07,09,12,7.40
2014,11,07,09,13,7.40
2014,11,07,09,14,7.40
2014,11,07,09,15,7.50
2014,11,07,09,16,7.50
2014,11,07,09,17,7.60
2014,11,07,09,18,7.60
2014,11,07,09,19,7.70
2014,11,07,09,20,7.70
2014,11,07,09,21,7.80
2014,11,07,09,22,7.80
2014,11,07,09,23,7.80
2014,11,07,09,24,7.80
2014,11,07,09,25,7.90
2014,11,07,09,26,8.00
2014,11,07,09,27,8.00
2014,11,07,09,28,8.10
2014,11,07,09,29,8.20
2014,11,07,09,30,8.20
2014,11,07,09,31,8.20
2014,11,07,09,32,8.30
2014,11,07,09,33,8.40
2014,11,07,09,34,8.50
2014,11,07,09,35,8.50
2014,11,07,09,36,8.50
2014,11,07,09,37,8.50
2014,11,07,09,38,8.50
2014,11,07,09,39,8.60
2014,11,07,09,40,8.60
2014,11,07,09,41,8.60
2014,11,07,09,42,8.60
2014,11,07,09,43,8.70
2014,11,07,09,44,8.70
2014,11,07,09,45,8.70
2014,11,07,09,46,8.80
2014,11,07,09,47,8.80
2014,11,07,09,48,8.80
2014,11,07,09,49,8.90
2014,11,07,09,50,8.90
2014,11,07,09,51,8.90
2014,11,07,09,52,9.00
2014,11,07,09,53,9.00
2014,11,07,09,54,9.10
2014,11,07,09,55,9.20
2014,11,07,09,56,9.30
2014,11,07,09,57,9.40
2014,11,07,09,58,9.50
2014,11,07,09,59,9.60
2014,11,07,10,00,9.60
2014,11,07,10,01,9.70
2014,11,07,10,02,9.60
2014,11,07,10,03,9.60
2014,11,07,10,04,9.60
2014,11,07,10,05,9.60
2014,11,07,10,06,9.70
2014,11,07,10,07,9.70
2014,11,07,10,08,9.70
2014,11,07,10,09,9.70
2014,11,07,10,10,9.70
2014,11,07,10,11,9.80
2014,11,07,10,12,9.80
2014,11,07,10,13,10.00
2014,11,07,10,14,10.10
2014,11,07,10,15,10.20
2014,11,07,10,16,10.30
2014,11,07,10,17,10.40
2014,11,07,10,18,10.50
2014,11,07,10,19,10.60
2014,11,07,10,20,10.70
2014,11,07,10,21,10.80
2014,11,07,10,22,10.80
2014,11,07,10,23,10.90
2014,11,07,10,24,10.90
2014,11,07,10,25,11.00
2014,11,07,10,26,11.00
2014,11,07,10,27,11.10
2014,11,07,10,28,11.10
2014,11,07,10,29,11.10
2014,11,07,10,30,11.20
2014,11,07,10,31,11.20
2014,11,07,10,32,11.30
2014,11,07,10,33,11.30
2014,11,07,10,34,11.40
2014,11,07,10,35,11.40
2014,11,07,10,36,11.40
2014,11,07,10,37,11.50
2014,11,07,10,38,11.50
2014,11,07,10,39,11.60
2014,11,07,10,40,11.70
2014,11,07,10,41,11.80
2014,11,07,10,42,11.80
2014,11,07,10,43,11.80
2014,11,07,10,44,11.80
2014,11,07,10,45,11.80
2014,11,07,10,46,11.80
2014,11,07,10,47,11.80
2014,11,07,10,48,11.80
2014,11,07,10,49,11.90
2014,11,07,10,50,11.90
2014,11,07,10,51,11.90
2014,11,07,10,52,12.00
2014,11,07,10,53,12.00
2014,11,07,10,54,12.10
2014,11,07,10,55,12.10
2014,11,07,10,56,12.20
2014,11,07,10,57,12.20
2014,11,07,10,58,12.20
2014,11,07,10,59,12.30
2014,11,07,11,00,12.30
2014,11,07,11,01,12.40
2014,11,07,11,02,12.40
2014,11,07,11,03,12.40
2014,11,07,11,04,12.40
2014,11,07,11,05,12.40
2014,11,07,11,06,12.50
2014,11,07,11,07,12.50
2014,11,07,11,08,12.60
2014,11,07,11,09,12.60
2014,11,07,11,10,12.60
2014,11,07,11,11,12.60
2014,11,07,11,12,12.60
2014,11,07,11,13,12.60
2014,11,07,11,14,12.70
2014,11,07,11,15,12.70
2014,11,07,11,16,12.80
2014,11,07,11,17,12.80
2014,11,07,11,18,12.90
2014,11,07,11,19,13.00
2014,11,07,11,20,13.10
2014,11,07,11,21,13.20
2014,11,07,11,22,13.20
2014,11,07,11,23,13.20
2014,11,07,11,24,13.20
2014,11,07,11,25,13.20
2014,11,07,11,26,13.20
2014,11,07,11,27,13.10
2014,11,07,11,28,13.10
2014,11,07,11,29,13.00
2014,11,07,11,30,13.00
2014,11,07,11,31,13.00
2014,11,07,11,32,13.00
2014,11,07,11,33,13.00
2014,11,07,11,34,13.00
2014,11,07,11,35,13.00
2014,11,07,11,36,13.00
2014,11,07,11,37,12.90
2014,11,07,11,38,12.90
2014,11,07,11,39,12.90
2014,11,07,11,40,12.80
2014,11,07,11,41,12.80
2014,11,07,11,42,12.80
2014,11,07,11,43,12.90
2014,11,07,11,44,12.90
2014,11,07,11,45,13.00
2014,11,07,11,46,13.00
2014,11,07,11,47,12.90
2014,11,07,11,48,12.90
2014,11,07,11,49,12.80
2014,11,07,11,50,12.60
2014,11,07,11,51,12.50
2014,11,07,11,52,12.40
2014,11,07,11,53,12.30
2014,11,07,11,54,12.30
2014,11,07,11,55,12.30
2014,11,07,11,56,12.30
2014,11,07,11,57,12.30
2014,11,07,11,58,12.30
2014,11,07,11,59,12.30
2014,11,07,12,00,12.40
2014,11,07,12,01,12.40
2014,11,07,12,02,12.40
2014,11,07,12,03,12.40
2014,11,07,12,04,12.40
2014,11,07,12,05,12.40
2014,11,07,12,06,12.40
2014,11,07,12,07,12.40
2014,11,07,12,08,12.40
2014,11,07,12,09,12.40
2014,11,07,12,10,12.40
2014,11,07,12,11,12.40
2014,11,07,12,12,12.40
2014,11,07,12,13,12.40
2014,11,07,12,14,12.40
2014,11,07,12,15,12.40
2014,11,07,12,16,12.40
2014,11,07,12,17,12.40
2014,11,07,12,18,12.40
2014,11,07,12,19,12.30
2014,11,07,12,20,12.30
2014,11,07,12,21,12.30
2014,11,07,12,22,12.30
2014,11,07,12,23,12.30
2014,11,07,12,24,12.30
2014,11,07,12,25,12.30
2014,11,07,12,26,12.30
2014,11,07,12,27,12.30
2014,11,07,12,28,12.30
2014,11,07,12,29,12.30
2014,11,07,12,30,12.20
2014,11,07,12,31,12.20
2014,11,07,12,32,12.20
2014,11,07,12,33,12.20
2014,11,07,12,34,12.20
2014,11,07,12,35,12.20
2014,11,07,12,36,12.10
2014,11,07,12,37,12.10
2014,11,07,12,38,12.00
2014,11,07,12,39,11.90
2014,11,07,12,40,11.90
2014,11,07,12,41,11.80
2014,11,07,12,42,11.80
2014,11,07,12,43,11.70
2014,11,07,12,44,11.70
2014,11,07,12,45,11.70
2014,11,07,12,46,11.60
2014,11,07,12,47,11.60
2014,11,07,12,48,11.50
2014,11,07,12,49,11.50
2014,11,07,12,50,11.40
2014,11,07,12,51,11.40
2014,11,07,12,52,11.40
2014,11,07,12,53,11.40
2014,11,07,12,54,11.40
2014,11,07,12,55,11.30
2014,11,07,12,56,11.30
2014,11,07,12,57,11.30
2014,11,07,12,58,11.30
2014,11,07,12,59,11.20
2014,11,07,13,00,11.20
2014,11,07,13,01,11.20
2014,11,07,13,02,11.20
2014,11,07,13,03,11.10
2014,11,07,13,04,11.10
2014,11,07,13,05,11.10
2014,11,07,13,06,11.10
2014,11,07,13,07,11.10
2014,11,07,13,08,11.10
2014,11,07,13,09,11.10
2014,11,07,13,10,11.10
2014,11,07,13,11,11.10
2014,11,07,13,12,11.10
2014,11,07,13,13,11.10
2014,11,07,13,14,11.10
2014,11,07,13,15,11.10
2014,11,07,13,16,11.10
2014,11,07,13,17,11.10
2014,11,07,13,18,11.10
2014,11,07,13,19,11.10
2014,11,07,13,20,11.10
2014,11,07,13,21,11.10
2014,11,07,13,22,11.10
2014,11,07,13,23,11.10
2014,11,07,13,24,11.20
2014,11,07,13,25,11.20
2014,11,07,13,26,11.20
2014,11,07,13,27,11.20
2014,11,07,13,28,11.20
2014,11,07,13,29,11.30
2014,11,07,13,30,11.30
2014,11,07,13,31,11.30
2014,11,07,13,32,11.40
2014,11,07,13,33,11.40
2014,11,07,13,34,11.40
2014,11,07,13,35,11.50
2014,11,07,13,36,11.50
2014,11,07,13,37,11.60
2014,11,07,13,38,11.60
2014,11,07,13,39,11.60
2014,11,07,13,40,11.60
2014,11,07,13,41,11.60
2014,11,07,13,42,11.60
2014,11,07,13,43,11.60
2014,11,07,13,44,11.60
2014,11,07,13,45,11.70
2014,11,07,13,46,11.70
2014,11,07,13,47,11.70
2014,11,07,13,48,11.70
2014,11,07,13,49,11.70
2014,11,07,13,50,11.70
2014,11,07,13,51,11.70
2014,11,07,13,52,11.70
2014,11,07,13,53,11.70
2014,11,07,13,54,11.70
2014,11,07,13,55,11.80
2014,11,07,13,56,11.80
2014,11,07,13,57,11.80
2014,11,07,13,58,11.80
2014,11,07,13,59,11.80
2014,11,07,14,00,11.80
2014,11,07,14,01,11.80
2014,11,07,14,02,11.80
2014,11,07,14,03,11.80
2014,11,07,14,04,11.80
2014,11,07,14,05,11.80
2014,11,07,14,06,11.80
2014,11,07,14,07,11.80
2014,11,07,14,08,11.80
2014,11,07,14,09,11.80
2014,11,07,14,10,11.80
2014,11,07,14,11,11.80
2014,11,07,14,12,11.80
2014,11,07,14,13,11.80
2014,11,07,14,14,11.80
2014,11,07,14,15,11.80
2014,11,07,14,16,11.70
2014,11,07,14,17,11.70
2014,11,07,14,18,11.70
2014,11,07,14,19,11.70
2014,11,07,14,20,11.70
2014,11,07,14,21,11.60
2014,11,07,14,22,11.60
2014,11,07,14,23,11.60
2014,11,07,14,24,11.50
2014,11,07,14,25,11.40
2014,11,07,14,26,11.40
2014,11,07,14,27,11.40
2014,11,07,14,28,11.30
2014,11,07,14,29,11.30
2014,11,07,14,30,11.30
2014,11,07,14,31,11.30
2014,11,07,14,32,11.20
2014,11,07,14,33,11.20
2014,11,07,14,34,11.10
2014,11,07,14,35,11.10
2014,11,07,14,36,11.10
2014,11,07,14,37,11.00
2014,11,07,14,38,11.00
2014,11,07,14,39,10.90
2014,11,07,14,40,10.90
2014,11,07,14,41,10.80
2014,11,07,14,42,10.80
2014,11,07,14,43,10.80
2014,11,07,14,44,10.70
2014,11,07,14,45,10.70
2014,11,07,14,46,10.70
2014,11,07,14,47,10.70
2014,11,07,14,48,10.60
2014,11,07,14,49,10.60
2014,11,07,14,50,10.60
2014,11,07,14,51,10.60
2014,11,07,14,52,10.50
2014,11,07,14,53,10.50
2014,11,07,14,54,10.40
2014,11,07,14,55,10.40
2014,11,07,14,56,10.40
2014,11,07,14,57,10.40
2014,11,07,14,58,10.30
2014,11,07,14,59,10.30
2014,11,07,15,00,10.30
2014,11,07,15,01,10.30
2014,11,07,15,02,10.30
2014,11,07,15,03,10.20
2014,11,07,15,04,10.20
2014,11,07,15,05,10.20
2014,11,07,15,06,10.10
2014,11,07,15,07,10.10
2014,11,07,15,08,10.10
2014,11,07,15,09,10.00
2014,11,07,15,10,10.00
2014,11,07,15,11,9.90
2014,11,07,15,12,9.90
2014,11,07,15,13,9.90
2014,11,07,15,14,9.90
2014,11,07,15,15,9.90
2014,11,07,15,16,9.90
2014,11,07,15,17,9.80
2014,11,07,15,18,9.80
2014,11,07,15,19,9.80
2014,11,07,15,20,9.80
2014,11,07,15,21,9.80
2014,11,07,15,22,9.70
2014,11,07,15,23,9.70
2014,11,07,15,24,9.70
2014,11,07,15,25,9.70
2014,11,07,15,26,9.70
2014,11,07,15,27,9.70
2014,11,07,15,28,9.60
2014,11,07,15,29,9.60
2014,11,07,15,30,9.60
2014,11,07,15,31,9.60
2014,11,07,15,32,9.60
2014,11,07,15,33,9.60
2014,11,07,15,34,9.60
2014,11,07,15,35,9.60
2014,11,07,15,36,9.60
2014,11,07,15,37,9.60
2014,11,07,15,38,9.60
2014,11,07,15,39,9.60
2014,11,07,15,40,9.60
2014,11,07,15,41,9.60
2014,11,07,15,42,9.60
2014,11,07,15,43,9.50
2014,11,07,15,44,9.50
2014,11,07,15,45,9.50
2014,11,07,15,46,9.50
2014,11,07,15,47,9.50
2014,11,07,15,48,9.40
2014,11,07,15,49,9.40
2014,11,07,15,50,9.40
2014,11,07,15,51,9.40
2014,11,07,15,52,9.40
2014,11,07,15,53,9.40
2014,11,07,15,54,9.40
2014,11,07,15,55,9.30
2014,11,07,15,56,9.30
2014,11,07,15,57,9.30
2014,11,07,15,58,9.30
2014,11,07,15,59,9.30
2014,11,07,16,00,9.30
2014,11,07,16,01,9.20
2014,11,07,16,02,9.20
2014,11,07,16,03,9.20
2014,11,07,16,04,9.20
2014,11,07,16,05,9.20
2014,11,07,16,06,9.20
2014,11,07,16,07,9.10
2014,11,07,16,08,9.10
2014,11,07,16,09,9.10
2014,11,07,16,10,9.10
2014,11,07,16,11,9.10
2014,11,07,16,12,9.10
2014,11,07,16,13,9.10
2014,11,07,16,14,9.00
2014,11,07,16,15,9.00
2014,11,07,16,16,9.00
2014,11,07,16,17,8.90
2014,11,07,16,18,8.90
2014,11,07,16,19,8.90
2014,11,07,16,20,8.90
2014,11,07,16,21,8.90
2014,11,07,16,22,8.80
2014,11,07,16,23,8.80
2014,11,07,16,24,8.80
2014,11,07,16,25,8.80
2014,11,07,16,26,8.80
2014,11,07,16,27,8.70
2014,11,07,16,28,8.70
2014,11,07,16,29,8.70
2014,11,07,16,30,8.70
2014,11,07,16,31,8.70
2014,11,07,16,32,8.60
2014,11,07,16,33,8.60
2014,11,07,16,34,8.60
2014,11,07,16,35,8.60
2014,11,07,16,36,8.60
2014,11,07,16,37,8.50
2014,11,07,16,38,8.50
2014,11,07,16,39,8.50
2014,11,07,16,40,8.40
2014,11,07,16,41,8.40
2014,11,07,16,42,8.40
2014,11,07,16,43,8.40
2014,11,07,16,44,8.40
2014,11,07,16,45,8.30
2014,11,07,16,46,8.30
2014,11,07,16,47,8.30
2014,11,07,16,48,8.30
2014,11,07,16,49,8.30
2014,11,07,16,50,8.30
2014,11,07,16,51,8.20
2014,11,07,16,52,8.20
2014,11,07,16,53,8.20
2014,11,07,16,54,8.20
2014,11,07,16,55,8.20
2014,11,07,16,56,8.10
2014,11,07,16,57,8.10
2014,11,07,16,58,8.10
2014,11,07,16,59,8.10
2014,11,07,17,00,8.10
2014,11,07,17,01,8.00
2014,11,07,17,02,8.00
2014,11,07,17,03,8.00
2014,11,07,17,04,7.90
2014,11,07,17,05,7.90
2014,11,07,17,06,7.90
2014,11,07,17,07,7.90
2014,11,07,17,08,7.80
2014,11,07,17,09,7.80
2014,11,07,17,10,7.80
2014,11,07,17,11,7.80
2014,11,07,17,12,7.80
2014,11,07,17,13,7.80
2014,11,07,17,14,7.70
2014,11,07,17,15,7.70
2014,11,07,17,16,7.70
2014,11,07,17,17,7.70
2014,11,07,17,18,7.70
2014,11,07,17,19,7.70
2014,11,07,17,20,7.70
2014,11,07,17,21,7.60
2014,11,07,17,22,7.60
2014,11,07,17,23,7.60
2014,11,07,17,24,7.60
2014,11,07,17,25,7.60
2014,11,07,17,26,7.50
2014,11,07,17,27,7.50
2014,11,07,17,28,7.40
2014,11,07,17,29,7.40
2014,11,07,17,30,7.40
2014,11,07,17,31,7.40
2014,11,07,17,32,7.40
2014,11,07,17,33,7.30
2014,11,07,17,34,7.30
2014,11,07,17,35,7.30
2014,11,07,17,36,7.30
2014,11,07,17,37,7.30
2014,11,07,17,38,7.30
2014,11,07,17,39,7.20
2014,11,07,17,40,7.20
2014,11,07,17,41,7.20
2014,11,07,17,42,7.20
2014,11,07,17,43,7.20
2014,11,07,17,44,7.20
2014,11,07,17,45,7.20
2014,11,07,17,46,7.20
2014,11,07,17,47,7.10
2014,11,07,17,48,7.10
2014,11,07,17,49,7.10
2014,11,07,17,50,7.10
2014,11,07,17,51,7.10
2014,11,07,17,52,7.10
2014,11,07,17,53,7.00